Location: Rooftop Observatory
(39.0308°N, 87.1711°W)
Time: 18:12:47
(UTC-05:00)

Terra - Visible Passes

Search period start: 28 August 2014 00:00
Search period end: 07 September 2014 00:00
Orbit: 702 x 703 km, 98.2° (Epoch: 07 September)

Date Brightness Start Highest point End Pass type
(mag) Time Alt. Az. Time Alt. Az. Time Alt. Az.
28 Aug 4.0 21:34:21 14° NE 21:34:21 14° NE 21:35:45 10° NNE visible
28 Aug 4.0 23:13:15 23° NNW 23:13:15 23° NNW 23:15:04 10° NNW visible
29 Aug 3.6 22:17:44 24° NNE 22:17:44 24° NNE 22:19:53 10° N visible
29 Aug 4.8 23:56:37 11° NW 23:56:37 11° NW 23:56:56 10° NW visible
30 Aug 4.2 21:22:13 10° NE 21:22:13 10° NE 21:22:27 10° NE visible
30 Aug 3.9 23:01:06 23° NNW 23:01:06 23° NNW 23:02:55 10° NNW visible
31 Aug 3.8 22:05:35 20° NNE 22:05:35 20° NNE 22:07:26 10° N visible
31 Aug 4.7 23:44:29 13° NW 23:44:29 13° NW 23:45:07 10° NW visible
01 Sep 3.9 22:48:58 23° N 22:48:58 23° N 22:50:43 10° N visible
02 Sep 3.9 21:53:27 16° NNE 21:53:27 16° NNE 21:54:54 10° NNE visible
02 Sep 4.6 23:32:21 15° NW 23:32:21 15° NW 23:33:11 10° NNW visible
03 Sep 4.0 22:36:50 21° N 22:36:50 21° N 22:38:26 10° N visible
04 Sep 4.1 21:41:19 13° NE 21:41:19 13° NE 21:42:12 10° NNE visible
04 Sep 4.5 23:20:13 16° NNW 23:20:13 16° NNW 23:21:08 10° NNW visible
05 Sep 4.0 22:24:42 19° N 22:24:42 19° N 22:26:06 10° N visible
06 Sep 4.3 21:29:11 10° NE 21:29:11 10° NE 21:29:14 10° NE visible
06 Sep 4.5 23:08:05 16° NNW 23:08:05 16° NNW 23:09:01 10° NNW visible
